Aérodrome :
LOGIN :

S'inscrire | Disclaimer

   EN    FR    IT 

 










Légende :    VFR   VFR Marginal   IFR   IFR Intensif   IFR Très Intensif
Visi : 
Plafond : 
>= 8 km
>= 3000ft
5 à 8 km
1000 à 3000 ft
1500m à 5 km
500 à 1000 ft
800 à 1500m
200 à 500 ft
< 800m
< 200 ft
Symboles :   Orages  Brouillard  Fortes neiges  Fortes précipitations  Vent > 20 kt
SIGMETs :   Divers  Orages  Givrage  Turbulence  Onde Orograph.  Cendres Volcan.







- Altitude de l'aérodrome : 19 ft
- Code IATA : LCY
- Voir les cartes d'approche


EGLC - London City

DERNIER METAR :
  • 210950Z AUTO 11006KT 080V150 9999 NCD 17/08 Q1021

METARs EXPIRÉS :
  • 210920Z AUTO 13004KT 9999 NCD 16/08 Q1022
  • 210850Z AUTO VRB03KT 9999 NCD 15/07 Q1022
  • 210820Z AUTO VRB03KT 9999 NCD 14/07 Q1022
  • 210750Z AUTO VRB02KT 9999 NCD 13/06 Q1023
  • 210720Z AUTO VRB03KT 9999 NCD 12/06 Q1023

TAF TAF EGLC
Valide du 21 à 09h jusqu'au 21 à 18h UTC


210756Z 2109/2118 06006KT CAVOK
ATIS : +44 20 7646 0224
Pas de NOTAMs connus pour ce terrain.



MET'MAP, la Météo Aéronautique d'un coup d'oeil ! - Copyright ORBIFLY Décembre 2007 - Disclaimer

ORBIFLY MET'MAP TEAM :

Programmation & Développement : Alexandra Zaïnal
Conception & Développement : Baudouin d'Aumeries
Co-Programmation & Développement : Marc-Olivier Méhu
Soutien technique & logistique : Manuel Goepfert

Contact : metmap@orbifly.com




SOURCES & CREDITS :

   NOAA